CW7842 Weather Reports


time (UTC)temp
C
wind
direction
speed
KPH
gust
KPH
rain 1hr
cm
rain 24hr
cm
rain mn
cm
humidity
%
barometer
mb
20260507130512 14 48 0.0 8.0 0.00 1.17 1.17 70 1014.5
20260507120510 13 5 0.0 0.0 0.00 1.17 1.17 70 1014.4
20260507113510 14 66 0.0 0.0 0.00 1.17 1.17 71 1014.2
20260507110509 13 22 1.6 11.3 0.00 1.17 1.17 74 1014.2
20260507100513 12 61 0.0 0.0 0.00 1.17 1.17 78 1014.1
20260507093512 12 5 0.0 0.0 0.00 1.17 1.17 80 1014.0
20260507090511 12 61 0.0 0.0 0.00 1.17 1.17 82 1013.8
20260507083510 11 320 0.0 0.0 0.00 1.17 1.17 83 1013.5
20260507080510 11 334 0.0 8.0 0.00 1.17 1.17 87 1013.3
20260507073514 11 28 0.0 0.0 0.03 1.17 1.17 91 1013.1
20260507063513 10 297 0.0 0.0 0.05 1.17 1.17 93 1012.7
20260507060513 10 288 0.0 0.0 0.05 1.14 1.14 93 1012.4
20260507053511 10 289 0.0 0.0 0.08 1.12 1.12 93 1012.1
20260507050510 10 333 0.0 0.0 0.08 1.09 1.09 93 1011.8
20260507043509 10 340 0.0 0.0 0.08 1.04 1.04 93 1011.4
20260507040514 10 308 0.0 0.0 0.10 0.99 0.99 92 1011.0
20260507033513 10 331 0.0 0.0 0.13 0.97 0.97 92 1010.8
20260507023511 10 74 0.0 0.0 0.13 0.84 0.84 92 1010.3
20260507020510 10 209 0.0 0.0 0.18 0.79 0.79 92 1010.1
20260507013510 10 169 0.0 0.0 0.20 0.71 0.71 92 1009.6
20260507010514 10 169 0.0 0.0 0.18 0.61 0.61 92 1009.4
20260507003513 10 169 0.0 0.0 0.15 0.51 0.51 92 1009.3
20260507000512 11 334 0.0 0.0 0.20 0.43 0.43 92 1009.1
20260506233512 11 264 1.6 17.7 0.23 0.36 0.36 92 1008.9
20260506230511 11 262 3.2 24.1 0.23 0.23 0.23 92 1008.8
20260506223510 11 305 0.0 0.0 0.15 0.15 0.15 91 1008.7
20260506220509 11 211 0.0 0.0 0.03 0.03 0.03 91 1008.6
20260506213514 11 301 1.6 19.3 0.23 0.74 0.74 91 1008.4
20260506210513 11 319 6.4 25.7 0.23 0.61 0.61 91 1008.1
20260506203512 11 256 1.6 22.5 0.20 0.51 0.51 90 1008.0
20260506200512 11 248 3.2 22.5 0.15 0.38 0.38 90 1007.8
20260506193511 11 260 3.2 16.1 0.10 0.30 0.30 89 1007.5
20260506190510 12 316 0.0 14.5 0.08 0.23 0.23 89 1007.1
20260506183509 12 246 1.6 16.1 0.05 0.20 0.20 89 1006.9
20260506180514 12 324 1.6 11.3 0.00 0.15 0.15 88 1006.4
20260506173513 12 229 0.0 14.5 0.03 0.15 0.15 88 1006.0
20260506170512 13 223 3.2 17.7 0.03 0.15 0.15 88 1005.7
20260506163511 13 251 4.8 19.3 0.05 0.13 0.13 87 1005.8
20260506153510 13 244 0.0 0.0 0.08 0.08 0.08 83 1005.9
20260506150509 15 247 0.0 0.0 0.00 0.00 0.00 79 1005.8
20260506143513 17 238 1.6 19.3 0.00 0.00 0.00 68 1005.4
20260506140513 17 308 0.0 1.6 0.00 0.00 0.00 65 1004.9